Location: Airlie Beach - Cannonvale QLD, Australia
(20.2768°S, 148.7558°E)
Time: 21:12:20
(UTC+10:00)

Hubble Space Telescope - Visible Passes

Search period start: 20 September 2020 00:00
Search period end: 30 September 2020 00:00
Orbit: 536 x 540 km, 28.5° (Epoch: 19 September)

Date Brightness Start Highest point End Pass type
(mag) Time Alt. Az. Time Alt. Az. Time Alt. Az.
20 Sep 1.7 19:36:03 10° W 19:39:58 39° SSW 19:40:12 39° S visible
21 Sep 2.0 19:25:31 10° WSW 19:29:20 34° SSW 19:30:19 30° SSE visible
22 Sep 2.2 19:14:59 10° WSW 19:18:42 30° S 19:20:22 23° SSE visible
23 Sep 2.3 19:04:28 10° WSW 19:08:06 28° S 19:10:22 18° SE visible
24 Sep 2.4 18:53:56 10° WSW 18:57:29 26° S 19:00:19 14° SE visible
24 Sep 4.1 20:35:32 10° SW 20:35:39 11° SW 20:35:39 11° SW visible
25 Sep 2.4 18:43:22 10° WSW 18:46:54 26° S 18:50:16 11° SE visible
25 Sep 3.7 20:24:48 10° SW 20:25:36 14° SW 20:25:36 14° SW visible
26 Sep 2.4 18:32:47 10° WSW 18:36:18 25° S 18:39:48 10° ESE visible
26 Sep 3.2 20:14:04 10° SW 20:15:31 19° SW 20:15:31 19° SW visible
27 Sep 2.4 18:22:10 10° SW 18:25:42 26° S 18:29:14 10° ESE visible
27 Sep 2.7 20:03:18 10° WSW 20:05:28 27° SW 20:05:28 27° SW visible
28 Sep 2.0 19:52:33 10° WSW 19:55:24 38° SW 19:55:24 38° SW visible
29 Sep 1.2 19:41:49 10° WSW 19:45:23 58° SSW 19:45:23 58° SSW visible
